Hourly Data Report for October 16, 2013

All times are specified in Local Standard Time (LST). Add 1 hour to adjust for Daylight Saving Time where and when it is observed.

KUGAARUK CLIMATE
NUNAVUT

68°32'15.060" N
89°47'47.020" W
15.80 m
2303094
71407
NBB

Download Data

Hourly Data (October 2013)
Hourly Data Report for October 16, 2013
Temp Definition
°C
Dew Point Temp Definition
°C
Rel Hum Definition
%
Wind Dir Definition
10's deg

Wind Spd Definition
km/h
Visibility Definition
km
Stn Press Definition
kPa
Hmdx Definition


Wind Chill Definition


Weather Definition


TIME
00:00 -4.2 -5.1 93 8 6   99.80   -7 LegendNANA
01:00 -4.9 -5.7 94 11 4   99.80   -7 LegendNANA
02:00 -4.8 -5.6 94   0   99.80     LegendNANA
03:00 -3.5 -4.3 94 12 4   99.80   -5 LegendNANA
04:00 -3.2 -4.0 94 14 4   99.81   -5 LegendNANA
05:00 -3.4 -4.2 94 14 2   99.80   -4 LegendNANA
06:00 -3.1 -3.7 96 24 7   99.81   -6 LegendNANA
07:00 -2.4 -3.2 94 24 6   99.83   -5 LegendNANA
08:00 -2.3 -3.1 94 24 11   99.84   -6 LegendNANA
09:00 -2.2 -3.5 91 24 7   99.85   -5 LegendNANA
10:00 -2.2 -3.3 92 26 11   99.86   -6 LegendNANA
11:00 -2.2 -4.0 87 25 9   99.87   -6 LegendNANA
12:00 -2.2 -3.5 91 26 11   99.89   -6 LegendNANA
13:00 -2.2 -3.3 92 24 11   99.93   -6 LegendNANA
14:00 -2.2 -3.3 92 24 11   99.94   -6 LegendNANA
15:00 -2.9 -4.3 90 27 11   99.99   -7 LegendNANA
16:00 -3.1 -4.6 89 28 9   100.03   -7 LegendNANA
17:00 -3.5 -5.2 88 27 13   100.06   -8 LegendNANA
18:00 -3.7 -5.2 89 27 17   100.08   -9 LegendNANA
19:00 -4.3 -6.3 86 27 15   100.06   -10 LegendNANA
20:00 -4.7 -6.5 87 25 15   100.06   -10 LegendNANA
21:00 -5.0 -6.5 89 25 15   100.06   -11 LegendNANA
22:00 -5.7 -7.0 91 24 13   100.08   -11 LegendNANA
23:00 -5.9 -7.1 91 22 9   100.08   -10 LegendNANA

Notes on Data Quality.

Legend

  • E = Estimated
  • M = Missing
  • NA = Not Available
  • ‡ = Partner data that is not subject to review by the National Climate Archives
Date modified: